Date String (YYYY-MM-DD hh:mm:ss) UTC,Instrument flags,Ambient pressure (hPa),Sample flow (lpm),Bypass flow (lpm),Sample temperature (°C),Ambient temperature (°C),ASC tube jacket temperature (°C),LED temperature (°C),Box temperature (°C),Sample RH (%),Span deviation,Mass concentration (μg/m³),Mass concentration (μg/m³),Mass concentration (μg/m³)
DateTimeUTC,F1_M11,P_M11,Q1_M11,Q2_M11,T1_M11,T2_M11,T3_M11,T4_M11,T5_M11,U1_M11,ZSPAN_M11,X0_M11,X2_M11,X1_M11
2023-02-25 10:00:00,,0824.7,5.00,0.00,21.7,19.6,00.0,30.6,23.1,09.0,0000.0,0012.49,0007.70,0007.29
2023-02-25 10:01:00,,0824.6,5.00,0.00,21.7,20.4,00.0,30.6,23.3,09.0,0000.0,0013.23,0008.24,0007.79
2023-02-25 10:02:00,,0824.6,4.96,0.00,21.8,21.7,00.0,30.6,23.6,09.0,0000.0,0013.62,0008.70,0008.22
2023-02-25 10:03:00,,0824.6,4.98,0.00,21.9,22.6,00.0,30.6,23.9,08.9,0000.0,0013.81,0009.15,0008.69
2023-02-25 10:04:00,,0824.5,5.03,0.00,22.0,22.3,00.0,30.6,23.9,08.8,0000.0,0014.31,0009.52,0009.04
2023-02-25 10:05:00,,0824.6,5.00,0.00,22.0,21.7,00.0,30.7,23.8,08.7,0000.0,0014.55,0009.63,0009.13
2023-02-25 10:06:00,,0824.6,4.98,0.00,22.0,21.2,00.0,30.7,23.7,08.7,0000.0,0015.15,0009.70,0009.20
2023-02-25 10:07:00,,0824.6,5.01,0.00,22.0,20.8,00.0,30.7,23.5,08.8,0000.0,0015.12,0009.67,0009.19
2023-02-25 10:08:00,,0824.6,4.97,0.00,21.9,20.4,00.0,30.7,23.4,08.8,0000.0,0015.33,0009.63,0009.16
2023-02-25 10:09:00,,0824.6,5.01,0.00,21.9,20.2,00.0,30.7,23.4,08.9,0000.0,0015.75,0009.98,0009.49
2023-02-25 10:10:00,,0824.6,5.00,0.00,21.8,20.0,00.0,30.7,23.3,08.9,0000.0,0015.78,0010.33,0009.88
2023-02-25 10:11:00,,0824.7,5.01,0.00,21.8,19.8,00.0,30.6,23.3,08.9,0000.0,0015.86,0010.53,0010.10
2023-02-25 10:12:00,,0824.7,5.02,0.00,21.7,19.7,00.0,30.6,23.2,09.0,0000.0,0015.68,0010.48,0010.07
2023-02-25 10:13:00,,0824.6,5.01,0.00,21.7,20.2,00.0,30.6,23.3,08.9,0000.0,0015.35,0010.37,0009.99
2023-02-25 10:14:00,,0824.6,4.97,0.00,21.8,21.6,00.0,30.6,23.7,08.8,0000.0,0015.07,0010.09,0009.73
2023-02-25 10:15:00,,0824.6,5.00,0.00,22.0,22.7,00.0,30.6,24.0,08.7,0000.0,0014.56,0009.74,0009.41
2023-02-25 10:16:00,,0824.7,4.99,0.00,22.1,22.6,00.0,30.7,24.0,08.6,0000.0,0014.27,0009.60,0009.28
2023-02-25 10:17:00,,0824.4,5.03,0.00,22.1,22.1,00.0,30.7,23.9,08.6,0000.0,0013.66,0009.54,0009.23
2023-02-25 10:18:00,,0824.4,4.98,0.00,22.1,21.5,00.0,30.7,23.8,08.6,0000.0,0013.73,0009.58,0009.26
2023-02-25 10:19:00,,0824.4,5.00,0.00,22.1,21.1,00.0,30.7,23.7,08.7,0000.0,0013.27,0009.47,0009.15
2023-02-25 10:20:00,,0824.4,4.99,0.00,22.0,20.8,00.0,30.7,23.7,08.8,0000.0,0012.83,0009.24,0008.92
2023-02-25 10:21:00,,0824.6,5.00,0.00,22.0,20.5,00.0,30.7,23.6,08.9,0000.0,0012.99,0009.15,0008.82
2023-02-25 10:22:00,,0824.4,4.99,0.00,22.0,20.3,00.0,30.7,23.5,08.9,0000.0,0013.12,0009.14,0008.79
2023-02-25 10:23:00,,0824.5,5.00,0.00,21.9,20.1,00.0,30.7,23.5,08.9,0000.0,0013.16,0009.02,0008.69
2023-02-25 10:24:00,,0824.4,5.00,0.00,21.9,20.0,00.0,30.7,23.4,08.7,0000.0,0012.99,0008.82,0008.48
2023-02-25 10:25:00,,0824.5,4.99,0.00,21.9,20.0,00.0,30.7,23.4,08.7,0000.0,0012.89,0008.71,0008.34
2023-02-25 10:26:00,,0824.5,5.01,0.00,21.9,20.1,00.0,30.7,23.5,08.7,0000.0,0012.87,0008.69,0008.31
2023-02-25 10:27:00,,0824.4,5.01,0.00,21.9,21.2,00.0,30.7,23.7,08.7,0000.0,0013.07,0008.65,0008.29
2023-02-25 10:28:00,,0824.4,5.03,0.00,22.0,22.4,00.0,30.7,24.0,08.5,0000.0,0013.20,0008.47,0008.11
2023-02-25 10:29:00,,0824.4,4.99,0.00,22.2,22.8,00.0,30.7,24.1,08.2,0000.0,0013.71,0008.12,0007.77
2023-02-25 10:30:00,,0824.4,4.99,0.00,22.2,22.4,00.0,30.8,24.1,08.2,0000.0,0013.26,0007.77,0007.43
2023-02-25 10:31:00,,0824.4,5.00,0.00,22.2,21.9,00.0,30.8,24.0,08.4,0000.0,0012.80,0007.49,0007.19
2023-02-25 10:32:00,,0824.4,4.99,0.00,22.2,21.5,00.0,30.8,23.9,08.2,0000.0,0011.97,0006.97,0006.69
2023-02-25 10:33:00,,0824.4,5.02,0.00,22.2,21.1,00.0,30.8,23.8,08.2,0000.0,0011.19,0006.39,0006.14
2023-02-25 10:34:00,,0824.5,4.99,0.00,22.1,20.8,00.0,30.8,23.8,08.1,0000.0,0010.62,0006.05,0005.81
2023-02-25 10:35:00,,0824.4,4.96,0.00,22.1,20.6,00.0,30.8,23.7,08.1,0000.0,0010.36,0005.86,0005.61
2023-02-25 10:36:00,,0824.4,5.00,0.00,22.1,20.4,00.0,30.8,23.6,08.3,0000.0,0010.12,0005.69,0005.44
2023-02-25 10:37:00,,0824.4,5.00,0.00,22.0,20.1,00.0,30.8,23.6,08.3,0000.0,0010.17,0005.56,0005.31
2023-02-25 10:38:00,,0824.5,4.99,0.00,22.0,20.0,00.0,30.8,23.5,08.3,0000.0,0010.04,0005.36,0005.08
2023-02-25 10:39:00,,0824.4,5.00,0.00,21.9,19.9,00.0,30.7,23.5,08.3,0000.0,0009.63,0005.26,0004.98
2023-02-25 10:40:00,,0824.4,5.01,0.00,21.9,20.1,00.0,30.7,23.5,08.2,0000.0,0008.70,0005.29,0005.02
2023-02-25 10:41:00,,0824.4,5.02,0.00,22.0,21.4,00.0,30.7,23.8,08.2,0000.0,0008.78,0005.37,0005.09
2023-02-25 10:42:00,,0824.4,4.93,0.00,22.1,22.6,00.0,30.7,24.1,08.2,0000.0,0008.68,0005.27,0004.97
2023-02-25 10:43:00,,0824.7,5.03,0.00,22.2,22.9,00.0,30.8,24.2,08.3,0000.0,0008.77,0005.37,0005.05
2023-02-25 10:44:00,,0824.6,5.00,0.00,22.2,22.3,00.0,30.8,24.1,08.7,0000.0,0009.31,0005.88,0005.53
2023-02-25 10:45:00,,0824.7,5.01,0.00,22.2,21.8,00.0,30.8,24.0,08.8,0000.0,0010.11,0006.51,0006.13
2023-02-25 10:46:00,,0824.4,5.00,0.00,22.2,21.4,00.0,30.9,23.9,08.7,0000.0,0011.46,0006.99,0006.59
2023-02-25 10:47:00,,0824.4,4.98,0.00,22.2,21.1,00.0,30.9,23.9,08.6,0000.0,0012.29,0007.29,0006.90
2023-02-25 10:48:00,,0824.4,5.02,0.00,22.2,20.9,00.0,30.9,23.8,08.3,0000.0,0012.35,0007.45,0007.07
2023-02-25 10:49:00,,0824.4,5.01,0.00,22.1,20.7,00.0,30.9,23.7,08.3,0000.0,0012.44,0007.70,0007.34
2023-02-25 10:50:00,,0824.4,4.98,0.00,22.1,20.6,00.0,30.9,23.7,08.4,0000.0,0013.23,0007.99,0007.61
2023-02-25 10:51:00,,0824.6,4.99,0.00,22.1,20.4,00.0,30.9,23.7,08.6,0000.0,0013.62,0008.30,0007.89
2023-02-25 10:52:00,,0824.4,5.02,0.00,22.1,20.3,00.0,30.9,23.6,08.7,0000.0,0014.02,0008.61,0008.17
2023-02-25 10:53:00,,0824.5,5.01,0.00,22.0,20.3,00.0,30.8,23.6,08.6,0000.0,0014.40,0008.83,0008.38
2023-02-25 10:54:00,,0824.4,5.01,0.00,22.0,20.3,00.0,30.8,23.6,08.6,0000.0,0014.75,0009.04,0008.57
2023-02-25 10:55:00,,0824.4,5.01,0.00,22.0,20.2,00.0,30.8,23.5,08.5,0000.0,0014.44,0008.82,0008.38
2023-02-25 10:56:00,,0824.4,5.02,0.00,22.0,20.2,00.0,30.8,23.5,08.6,0000.0,0014.09,0008.55,0008.08
2023-02-25 10:57:00,,0824.4,4.98,0.00,22.0,20.8,00.0,30.8,23.7,08.6,0000.0,0013.18,0008.42,0007.91
2023-02-25 10:58:00,,0824.4,4.97,0.00,22.1,22.0,00.0,30.8,24.0,08.5,0000.0,0012.58,0008.39,0007.87
2023-02-25 10:59:00,,0824.4,5.06,0.00,22.2,22.8,00.0,30.8,24.2,08.4,0000.0,0012.61,0008.47,0007.92
